Weather Service Report


975 
ASUS45 KBOU 080707
RWRCO 

WEATHER ROUNDUP FOR COLORADO
NATIONAL WEATHER SERVICE DENVER/BOULDER CO
1200 AM MST THU DEC 08 2016

NOTE: "FAIR" INDICATES FEW OR NO CLOUDS BELOW 12000 FEET WITH NO
SIGNIFICANT WEATHER AND/OR OBSTRUCTIONS TO VISIBILITY.

COZ001>005-013-030-031-080800-
...NORTHWEST COLORADO...
  
CITY           SKY/WX    TMP DP  RH WIND       PRES   REMARKS
CRAIG          FAIR      -9 -14  78 CALM      30.31F                  
HAYDEN         FAIR      -2  -9  71 E10       30.28S WCI -19          
MEEKER         FAIR      -9 -13  83 NE3       30.28F                  
MOUNT WERNER   NOT AVBL                                               
STEAMBOAT SPGS FAIR      -7 -10  87 CALM      30.28F                  
WALDEN           N/A    -15 -22  70 SE12      30.21S WCI -36          
$$

COZ006>008-011-080800-
...WEST CENTRAL VALLEYS...
  
CITY           SKY/WX    TMP DP  RH WIND       PRES   REMARKS
GRAND JUNCTION FAIR      16   8  71 SE8       30.31R WCI   5          
MONTROSE       FAIR      12   4  70 SE12      30.31S WCI  -2          
EAGLE          FAIR      -2  -7  79 SE5       30.33S WCI -12          
RIFLE          FAIR       8   1  73 S5        30.33S WCI   0          
DELTA          NOT AVBL                                               
NUCLA          FAIR      12   1  62 SE7       30.31R WCI   2          
$$

COZ017>023-064>068-080800-
...SOUTHWEST COLORADO...
  
CITY           SKY/WX    TMP DP  RH WIND       PRES   REMARKS
DURANGO        FAIR      11   0  61 N3        30.22S                  
CORTEZ         FAIR      11   4  73 E5        30.26S WCI   3          
PAGOSA SPRINGS FAIR       8  -1  65 CALM      30.21R                  
TELLURIDE      FAIR       7  -5  56 SE7       30.16R WCI  -4          
WOLF CREEK PAS FAIR       0  -8  71 S18       30.09S WCI -22          
$$

COZ009-010-012-014-032>034-037-058>063-080800-
...CENTRAL COLORADO...
  
CITY           SKY/WX    TMP DP  RH WIND       PRES   REMARKS
ASPEN          FAIR      -2  -8  76 S7        30.20S WCI -15          
BUENA VISTA    MOCLDY    -5 -11  76 W6        30.21F WCI -17          
COPPER MTN     NOT AVBL                                               
BERTHOUD PASS  FAIR     -13 -24  58 MISG      29.90F                  
COTTONWOOD PAS FAIR       5   0  78 E3        30.09F                  
GUNNISON       FAIR      -3  -9  75 CALM      30.25R                  
KREMMLING      FAIR     -11 -17  77 CALM      30.29S                  
LEADVILLE      FAIR      -9 -15  75 NE8       30.07F WCI -25          
MONARCH PASS   FAIR      -4  -8  84 W25       30.10S WCI -30          
SALIDA         MOCLDY     4  -2  74 SW5       30.31F WCI  -5          
SUNLIGHT       FAIR     N/A N/A N/A S3        30.11F                  
WILKERSON PASS FAIR      -4 -13  65 SW7       30.04F WCI -18          
$$

COZ069>075-080800-
...SAN LUIS VALLEY/SANGRE DE CRISTO MOUNTAINS...
  
CITY           SKY/WX    TMP DP  RH WIND       PRES   REMARKS
ALAMOSA        FAIR      -1  -5  82 CALM      30.20S                  
LA VETA PASS   FAIR       3   0  85 N8G22     30.10S WCI -10          
SAGUACHE       FAIR       7  -2  66 NW12      30.20S WCI  -9          
$$

COZ035-036-038>040-080800-
...NORTHERN COLORADO FRONT RANGE...
  
CITY           SKY/WX    TMP DP  RH WIND       PRES   REMARKS
DENVER INTL AP FAIR      -4  -8  83 S10       30.38S WCI -21          
DMNS CITY PARK   N/A      6   1  81 E8        30.39F WCI  -7          
AURORA         PTCLDY    -1  -5  84 SE7       30.36F WCI -15          
FRONT RANGE AP FAIR       0  -8  71 S5        30.38F WCI -10          
ERIE MUNI ARPT MOCLDY    -7 -11  83 CALM      30.41F                  
BOULDER MUN AP FLURRIES   9   3  78 CALM      30.39F                  
CENTENNIAL     FAIR       1  -3  83 SE3       30.34F                  
BROOMFIELD     CLOUDY     9   3  78 CALM      30.36F                  
FORT COLLINS   FAIR       1  -4  78 S6        30.42S WCI -10          
LONGMONT       CLOUDY     1  -3  81 CALM      30.43F                  
$$

COZ041-046-047-076>085-087-088-080800-
...PIKES PEAK/PALMER DIVIDE AND SOUTHERN FOOTHILLS...
  
CITY           SKY/WX    TMP DP  RH WIND       PRES   REMARKS
COLO. SPRINGS  LGT SNOW   8   4  83 S3        30.34S FOG              
A. F. ACADEMY  FLURRIES   4  -1  79 CALM      30.29F                  
SCHRIEVER AFB  NOT AVBL                                               
ELLICOTT       LGT SNOW N/A N/A N/A W3          N/A                   
FALCON         LGT SNOW   7   4  90 SW7       30.29S WCI  -5          
FORT CARSON    CLOUDY     3   0  85 S7        30.34S WCI  -9          
LIMON          FAIR     -12 -15  86 CALM      30.40F                  
MONUMENT HILL  FAIR       0  -6  78 S9        30.25F WCI -16          
TRINIDAD       CLOUDY    13   9  84 NE7       30.36S WCI   3          
$$

COZ042>045-048>051-090-091-080800-
...NORTHEAST COLORADO...
  
CITY           SKY/WX    TMP DP  RH WIND       PRES   REMARKS
GREELEY ARPT   FAIR     -10 -16  74 CALM      30.46F                  
AKRON          FAIR      -6 -11  79 W8        30.44S WCI -21          
BURLINGTON     FAIR      -2  -9  72 W9        30.48R WCI -18          
WRAY           NOT AVBL                                               
STERLING       FAIR      -9 -13  84 S7        30.49S WCI -24          
HOLYOKE        FAIR       1  -6  71 W9        30.51S WCI -14          
FORT MORGAN    FAIR      -7 -12  79 W8        30.47F WCI -23          
$$

COZ086-089-092>099-080800-
...SOUTHEAST COLORADO...
  
CITY           SKY/WX    TMP DP  RH WIND       PRES   REMARKS
PUEBLO         CLOUDY    15   6  67 SE9       30.44S WCI   3          
LA JUNTA       FAIR      13   4  67 SE3       30.48R                  
LAMAR          CLOUDY    11   3  70 CALM      30.50S                  
SPRINGFIELD      N/A     13   6  74 N9        30.45F WCI   1          
$$
  

Return to Home page


Western Regional Climate Center, wrcc@dri.edu